Temp
14 14 14 14 14 14 14 14 14 13 13 13 13 12 12 12 12 13 14 14 14 14 14 13 13 13 13 14 14 14 14 13 13 13 13 13 13 13 13 13 13 13
14 14 13 14 14 14 14 14 14 13 13 13 13 13 12 12 12 13 14 14 14 14 13 13 13 13 13 14 14 13 13 13 13 13 13 13 13 13 13 12 12 12
13 13 13 13 14 15 14 14 13 13 13 13 12 12 12 12 13 13 14 14 14 13 13 13 13 13 13 13 13 13 13 13 13 13 12 12 12 12 12 12 12 12
13 13 12 13 14 14 14 13 13 13 13 12 12 12 12 12 13 13 13 13 13 13 13 13 13 13 13 13 13 12 12 12 12 12 12 12 12 12 12 12 12 11
13 13 13 13 14 14 13 13 13 13 12 12 11 12 12 12 13 13 13 13 13 12 12 12 13 13 13 12 12 12 12 12 12 12 12 12 12 12 12 12 11 11
13 13 13 13 13 14 13 13 13 13 12 11 11 12 12 12 12 12 12 12 12 12 12 12 13 13 12 12 12 12 12 12 12 12 12 12 11 12 12 11 11 10
13 12 12 13 13 13 13 12 12 12 11 11 11 12 12 12 12 12 11 11 11 11 12 12 12 12 12 12 11 11 11 11 11 11 11 11 11 11 11 11 10 10
12 12 12 13 13 13 12 12 12 11 11 11 11 12 12 12 12 11 11 11 11 11 12 12 12 12 11 11 11 11 11 11 11 11 11 11 11 11 11 11 10 10
12 12 12 13 13 13 12 12 11 11 11 11 11 12 11 11 11 11 10 10 11 11 11 12 11 11 11 11 11 11 11 11 11 11 11 11 11 11 11 10 10 9
12 12 12 12 12 12 12 11 11 11 11 11 11 11 11 11 10 10 10 10 10 11 11 11 11 11 11 11 11 10 11 11 11 11 10 10 10 10 10 9 8 8
11 11 12 12 12 12 12 11 11 11 11 11 11 11 10 10 10 9 9 10 10 11 11 11 11 11 11 10 10 10 11 11 11 10 10 10 10 10 9 8 7 7
11 11 12 12 12 12 12 11 11 11 11 10 10 10 10 10 9 8 9 9 10 10 11 11 11 11 10 10 10 10 10 10 10 10 10 10 10 9 8 7 7 7
11 11 12 12 12 11 11 11 11 11 10 10 10 10 9 9 8 8 8 9 9 10 10 11 10 10 10 10 10 10 10 10 10 9 10 10 9 8 7 7 7 7
11 11 12 12 12 11 11 11 11 11 10 10 10 10 9 9 8 8 8 9 9 9 9 10 10 10 10 10 9 9 10 10 9 9 9 9 8 8 7 6 7 8
11 11 12 12 12 11 11 11 11 10 10 9 10 9 9 9 8 8 8 8 8 8 9 9 9 9 9 9 9 10 10 10 9 9 9 9 8 8 7 7 8 8
11 12 13 12 11 11 11 10 10 10 10 10 9 9 9 8 8 8 8 8 8 8 8 8 8 8 8 9 9 10 10 9 9 9 8 8 8 7 7 8 8 8
11 12 12 12 11 11 11 10 10 10 10 10 9 9 9 8 8 8 8 8 8 8 8 8 8 8 8 8 9 9 9 9 9 8 8 7 7 7 7 8 8 7
11 11 11 11 11 11 11 10 10 10 9 9 9 9 9 8 7 8 7 7 7 8 8 8 8 8 8 8 9 9 9 9 9 8 8 7 6 6 6 7 7 7
11 12 12 12 11 11 10 10 10 9 9 9 9 9 8 8 7 7 7 7 7 7 8 8 8 8 8 9 9 10 9 9 9 8 7 7 6 6 6 7 7 7
12 13 13 12 11 10 10 10 9 9 9 9 9 8 8 7 7 7 7 7 7 7 8 8 9 9 9 9 9 9 9 9 8 8 7 6 6 5 5 6 6 7
13 13 13 12 11 10 10 9 9 9 9 8 8 8 7 7 7 7 7 7 7 7 7 8 9 9 9 9 9 9 8 8 8 7 6 6 5 5 4 5 5 6
13 13 13 12 11 10 10 9 9 9 8 8 8 7 7 7 7 7 7 6 6 7 7 8 9 9 9 9 8 8 8 7 7 7 6 5 6 5 4 4 5 5
12 12 12 12 11 10 10 9 9 9 8 8 7 7 6 6 6 6 6 6 6 6 7 8 9 9 9 8 8 8 7 7 7 6 6 6 6 5 5 5 5 5
12 12 12 12 11 10 10 9 8 8 8 7 7 7 6 6 6 6 6 6 6 6 8 9 9 9 9 8 8 8 7 7 7 6 5 5 6 6 5 5 5 6
12 12 12 12 11 10 9 8 8 8 7 7 7 6 6 6 6 6 6 5 5 6 8 9 9 8 9 8 8 8 7 7 6 6 5 5 5 5 5 4 5 6
12 12 11 11 10 9 9 8 8 8 7 7 6 6 6 6 6 5 5 5 6 7 8 8 8 8 8 8 8 7 7 7 6 6 5 5 5 5 5 4 5 6
Height
1514 1515 1516 1517 1519 1520 1522 1524 1526 1528 1530 1531 1533 1534 1535 1536 1535 1535 1535 1536 1537 1537 1538 1539 1540 1541 1542 1542 1543 1543 1544 1545 1546 1546 1547 1548 1548 1548 1549 1549 1549 1549
1512 1513 1514 1516 1517 1519 1521 1524 1526 1527 1529 1531 1532 1533 1533 1534 1534 1534 1535 1535 1536 1537 1538 1539 1540 1541 1542 1542 1543 1543 1544 1545 1546 1547 1547 1548 1548 1549 1549 1549 1549 1550
1510 1511 1513 1514 1516 1518 1520 1522 1524 1526 1528 1529 1530 1531 1532 1533 1533 1534 1535 1536 1536 1537 1538 1539 1540 1540 1541 1542 1543 1543 1544 1545 1546 1546 1547 1548 1548 1549 1549 1549 1550 1550
1509 1510 1511 1513 1515 1517 1519 1521 1523 1526 1527 1528 1529 1530 1531 1532 1533 1533 1535 1536 1536 1537 1538 1539 1540 1540 1541 1542 1542 1543 1544 1545 1546 1547 1547 1548 1548 1549 1549 1550 1550 1551
1507 1508 1510 1512 1514 1516 1518 1520 1523 1525 1526 1527 1528 1530 1530 1532 1533 1533 1534 1535 1536 1537 1537 1538 1539 1540 1541 1541 1542 1543 1544 1545 1546 1547 1547 1548 1549 1549 1549 1550 1551 1552
1505 1507 1509 1511 1512 1514 1517 1519 1522 1523 1525 1527 1528 1529 1530 1531 1532 1533 1533 1534 1535 1536 1537 1538 1539 1540 1541 1542 1543 1543 1544 1545 1546 1547 1548 1548 1549 1549 1550 1550 1551 1552
1504 1506 1508 1509 1511 1514 1516 1518 1521 1522 1524 1526 1527 1528 1530 1530 1531 1532 1533 1534 1535 1536 1537 1538 1539 1540 1541 1542 1543 1543 1545 1545 1546 1547 1548 1549 1549 1549 1550 1551 1552 1553
1502 1504 1506 1508 1510 1513 1515 1517 1520 1522 1523 1525 1527 1528 1529 1530 1530 1531 1532 1533 1535 1536 1537 1538 1538 1539 1540 1541 1542 1544 1544 1545 1546 1547 1548 1548 1549 1549 1550 1551 1552 1553
1501 1503 1505 1507 1509 1511 1514 1517 1519 1521 1523 1525 1526 1527 1528 1529 1529 1530 1532 1533 1534 1535 1536 1537 1538 1539 1540 1541 1542 1544 1544 1545 1546 1547 1548 1548 1549 1550 1550 1551 1552 1553
1499 1501 1503 1506 1508 1511 1513 1516 1518 1520 1522 1524 1525 1527 1527 1528 1529 1530 1532 1533 1534 1535 1536 1537 1538 1539 1540 1541 1543 1544 1544 1545 1546 1547 1548 1549 1549 1550 1551 1552 1553 1553
1498 1500 1502 1504 1507 1511 1513 1515 1517 1519 1522 1523 1525 1526 1526 1527 1529 1530 1531 1532 1533 1534 1535 1536 1537 1539 1540 1541 1543 1544 1544 1545 1546 1547 1548 1548 1549 1550 1551 1552 1553 1553
1496 1499 1501 1504 1507 1510 1512 1514 1517 1519 1521 1523 1524 1525 1526 1527 1528 1530 1531 1532 1533 1534 1535 1536 1537 1538 1540 1541 1542 1543 1544 1545 1546 1547 1548 1548 1549 1550 1551 1552 1553 1553
1495 1497 1500 1503 1506 1509 1511 1513 1516 1518 1521 1522 1523 1524 1525 1527 1528 1529 1530 1531 1532 1533 1534 1535 1537 1538 1539 1541 1542 1543 1544 1545 1546 1546 1547 1548 1549 1550 1551 1552 1552 1553
1494 1496 1498 1502 1505 1507 1510 1513 1515 1518 1520 1521 1523 1524 1525 1526 1527 1528 1530 1531 1532 1533 1534 1535 1536 1538 1539 1540 1541 1542 1543 1544 1545 1546 1547 1548 1549 1549 1550 1551 1552 1552
1492 1495 1497 1501 1504 1507 1509 1512 1515 1517 1519 1520 1522 1523 1524 1526 1527 1528 1529 1530 1531 1532 1533 1534 1536 1537 1538 1539 1540 1541 1542 1544 1545 1546 1547 1548 1548 1549 1550 1550 1551 1552
1490 1493 1496 1500 1503 1505 1508 1511 1514 1516 1518 1519 1520 1522 1524 1525 1526 1527 1528 1529 1530 1531 1532 1533 1535 1536 1537 1538 1539 1540 1541 1543 1544 1546 1547 1548 1549 1549 1549 1550 1551 1552
1489 1492 1496 1499 1502 1504 1507 1510 1512 1514 1516 1518 1519 1521 1523 1524 1525 1526 1527 1528 1529 1530 1531 1532 1533 1535 1536 1537 1538 1540 1541 1542 1544 1546 1547 1548 1549 1549 1549 1550 1551 1551
1488 1490 1494 1497 1500 1503 1506 1509 1511 1513 1515 1517 1518 1520 1521 1522 1524 1525 1526 1527 1528 1528 1530 1531 1532 1533 1535 1536 1537 1538 1540 1541 1543 1545 1546 1548 1548 1549 1549 1550 1550 1551
1487 1489 1493 1496 1499 1502 1505 1507 1510 1512 1514 1515 1517 1518 1520 1521 1523 1524 1525 1526 1526 1527 1528 1529 1530 1532 1533 1535 1536 1538 1539 1540 1542 1543 1545 1547 1548 1549 1549 1549 1550 1551
1486 1489 1492 1495 1498 1501 1504 1506 1509 1511 1513 1514 1515 1517 1518 1519 1521 1523 1523 1524 1525 1526 1526 1527 1529 1531 1532 1534 1536 1537 1538 1539 1541 1542 1544 1545 1547 1548 1549 1549 1549 1550
1485 1488 1491 1494 1497 1500 1503 1505 1507 1509 1511 1513 1513 1515 1516 1518 1520 1521 1522 1523 1524 1524 1524 1525 1528 1530 1531 1533 1535 1536 1537 1538 1540 1541 1543 1544 1546 1547 1548 1549 1549 1550
1485 1487 1490 1493 1496 1499 1501 1503 1506 1508 1510 1511 1512 1514 1515 1517 1519 1520 1520 1522 1522 1521 1522 1524 1527 1529 1530 1532 1534 1535 1536 1537 1539 1540 1542 1543 1544 1545 1547 1548 1548 1549
1485 1487 1490 1492 1495 1497 1500 1502 1505 1507 1509 1510 1511 1513 1514 1516 1517 1518 1519 1520 1520 1519 1520 1523 1525 1527 1529 1531 1532 1534 1535 1536 1538 1539 1540 1541 1543 1544 1545 1547 1547 1548
1484 1487 1489 1491 1493 1496 1499 1501 1504 1506 1507 1509 1510 1512 1513 1515 1516 1517 1518 1519 1518 1517 1519 1522 1524 1526 1527 1529 1531 1532 1533 1535 1537 1538 1539 1540 1542 1543 1545 1546 1546 1547
1483 1485 1488 1490 1493 1496 1498 1500 1503 1505 1506 1508 1510 1511 1512 1514 1515 1516 1516 1517 1516 1517 1519 1521 1523 1524 1526 1528 1529 1531 1532 1534 1536 1538 1539 1540 1541 1542 1544 1545 1545 1546
1482 1484 1487 1489 1492 1494 1497 1500 1502 1503 1504 1506 1508 1510 1511 1513 1514 1514 1515 1515 1515 1516 1518 1520 1522 1523 1525 1526 1528 1529 1531 1533 1535 1537 1539 1540 1540 1542 1543 1544 1544 1545
Wind_Speed
21 20 20 20 20 20 21 20 19 20 17 16 15 13 11 10 9 10 12 10 9 11 10 9 9 8 8 8 9 10 11 11 12 12 12 11 10 9 9 9 8 8
20 19 19 21 22 21 21 19 19 20 18 16 15 14 12 10 8 10 12 11 9 10 10 9 9 8 9 10 10 11 12 13 13 13 12 11 10 10 9 9 9 8
20 19 20 22 23 22 21 20 20 20 18 17 16 14 11 8 7 8 8 8 10 11 10 10 9 10 11 12 12 13 14 14 14 13 13 12 11 10 10 9 9 9
21 22 22 22 21 21 21 22 22 20 19 18 16 13 10 7 6 6 6 8 12 12 11 11 11 12 12 13 14 15 15 14 14 13 12 11 11 11 10 9 9 10
23 23 23 21 20 20 22 23 22 21 20 18 15 12 10 7 6 7 9 12 13 13 13 13 13 13 14 15 15 15 15 15 14 13 12 12 12 11 11 10 11 11
23 22 22 21 21 22 23 23 23 23 21 18 15 12 9 7 7 9 12 15 15 14 14 13 14 15 15 16 16 16 16 15 14 13 12 12 12 12 11 10 10 12
23 22 22 23 23 23 24 25 24 22 20 17 14 11 9 9 8 9 13 15 15 15 14 14 14 16 17 17 17 17 17 16 15 14 13 13 13 12 12 12 11 12
24 23 24 25 25 26 27 26 23 20 18 16 14 12 11 9 8 11 15 16 16 15 15 15 16 17 19 19 19 18 18 17 16 15 14 13 13 12 12 12 12 12
25 24 24 26 27 29 29 26 22 19 18 17 15 12 11 8 9 13 16 16 16 16 16 16 17 19 20 20 20 19 19 18 17 15 14 13 13 12 12 12 12 11
26 26 26 28 30 30 27 24 22 20 20 18 14 12 10 9 11 14 16 17 17 16 17 17 19 21 21 21 20 20 19 18 17 15 14 14 13 13 13 12 12 11
26 27 28 29 29 28 26 23 22 21 20 17 13 12 11 11 13 16 17 18 17 17 18 19 21 22 21 21 21 20 19 18 17 16 16 15 15 14 13 12 11 11
27 28 30 30 29 28 26 24 22 21 20 16 13 13 12 12 15 17 18 18 17 17 18 20 21 22 21 21 21 21 19 18 18 18 17 16 15 15 14 13 12 11
29 29 30 31 30 29 28 26 24 22 20 17 15 14 12 13 17 19 19 18 18 18 19 20 22 22 22 23 22 21 20 19 19 18 17 16 15 15 14 13 13 13
30 30 31 32 32 30 29 27 25 22 20 18 16 14 12 14 18 19 19 18 18 19 19 21 22 23 23 23 23 23 21 20 19 18 17 17 16 15 14 13 13 12
30 31 31 32 31 30 29 27 25 24 23 19 15 14 13 15 19 20 19 19 19 19 20 21 23 23 23 24 24 23 22 20 19 18 17 17 17 15 15 14 12 10
30 32 31 31 31 29 29 28 26 26 26 21 16 14 14 17 19 20 20 21 21 21 21 22 23 23 23 23 23 23 22 20 19 18 17 17 16 16 15 14 12 11
29 31 31 31 31 31 30 29 28 27 25 22 18 16 15 18 21 21 21 21 22 22 23 23 24 24 24 24 24 23 22 21 19 18 17 17 16 16 15 13 12 12
30 32 33 32 32 32 31 30 29 28 25 22 19 17 17 20 22 22 21 22 22 23 24 25 26 26 26 26 25 24 23 22 19 18 18 17 15 14 14 13 13 13
31 32 32 32 32 32 32 31 30 28 24 21 19 18 19 22 23 22 22 23 23 23 24 26 27 27 27 27 26 24 23 21 20 20 20 17 15 13 12 12 13 13
29 30 30 31 31 32 32 31 30 28 23 20 18 19 22 24 24 24 24 23 23 24 25 27 27 27 28 27 25 24 23 22 21 21 20 17 15 12 11 12 12 11
29 29 29 28 29 31 32 31 30 27 23 19 18 20 23 25 25 25 24 24 24 25 26 27 27 26 27 26 25 23 23 23 22 21 18 17 16 15 14 12 11 9
30 29 28 28 29 32 32 31 30 28 23 19 19 20 22 24 25 25 25 24 25 26 28 27 26 26 26 26 25 23 23 24 22 21 19 19 19 19 17 16 14 12
32 30 28 28 29 31 31 30 29 27 22 21 22 22 22 23 24 25 25 25 26 29 29 27 25 25 26 26 26 25 25 25 23 21 20 19 19 19 18 16 17 16
32 30 28 29 29 29 30 28 25 23 22 23 24 23 22 22 23 24 25 26 28 31 29 26 25 25 26 27 27 26 27 27 23 19 17 16 17 18 16 14 17 17
32 30 30 29 28 28 30 26 21 21 24 25 23 22 22 22 23 24 25 27 29 30 28 25 24 26 26 26 27 27 27 27 23 17 13 13 14 15 15 14 16 17
32 31 29 27 26 26 27 24 21 23 25 24 22 21 21 22 23 24 24 26 27 26 25 25 25 26 27 26 27 27 27 27 24 18 12 12 13 13 14 15 16 15
Wind_Direction
202 203 204 204 202 201 203 201 193 189 190 191 193 199 206 213 220 228 244 250 227 207 193 187 193 194 192 190 183 173 164 160 159 156 155 155 152 149 144 138 135 134
199 200 201 202 201 202 201 195 189 189 189 189 196 208 210 212 222 229 246 253 221 194 186 188 193 194 194 187 176 167 162 162 162 159 157 153 149 147 141 139 141 138
197 197 197 200 202 201 193 188 189 189 187 188 194 206 212 215 227 242 254 238 201 186 187 193 197 198 194 182 172 168 167 168 165 161 157 152 149 147 144 146 145 139
201 201 199 201 203 199 190 186 188 185 184 187 189 198 213 222 237 255 248 212 193 189 192 197 201 198 189 180 174 172 170 169 165 162 159 156 152 150 148 148 142 136
204 203 199 201 200 193 186 183 184 183 183 184 185 195 209 221 241 245 225 204 195 194 197 200 201 195 185 178 175 173 171 169 165 164 163 159 155 153 151 149 145 141
201 201 198 197 191 184 180 177 180 184 184 182 184 193 205 223 244 233 210 201 197 197 200 202 198 191 183 178 175 174 172 170 167 166 167 163 156 154 152 151 154 152
196 197 193 190 184 178 175 174 179 183 181 182 185 192 210 230 238 219 201 199 199 199 201 200 195 187 182 178 177 176 173 170 170 170 169 165 158 158 157 156 159 159
196 195 188 183 178 173 173 176 180 180 178 184 189 198 215 228 225 207 200 200 200 200 199 196 192 186 182 181 179 177 173 172 175 173 170 167 163 164 166 163 163 163
196 194 184 177 175 175 177 178 177 177 181 188 194 204 213 215 208 201 199 200 200 200 198 194 190 187 184 184 181 177 177 177 178 175 171 169 167 167 169 166 162 159
194 189 183 180 180 179 178 177 176 179 184 189 196 204 205 204 202 196 195 199 200 198 197 193 190 189 188 185 181 180 182 181 178 175 171 169 170 170 169 166 160 156
191 188 187 186 182 178 176 177 180 183 184 188 198 201 198 197 196 193 193 198 199 197 196 193 192 191 188 183 182 183 184 182 178 174 172 174 174 173 170 165 163 162
188 191 191 186 179 177 179 181 184 186 182 186 197 197 194 193 190 189 193 196 198 197 197 195 193 191 187 183 184 185 184 182 179 177 179 180 177 175 173 171 170 172
186 191 192 185 178 179 183 184 187 186 182 188 198 195 191 190 187 188 192 195 196 197 198 197 193 190 187 186 186 185 185 184 183 183 184 181 178 177 176 177 181 184
187 191 192 185 180 182 185 186 188 184 182 192 200 194 188 188 188 191 192 190 193 197 198 196 193 191 189 188 187 187 188 188 187 187 184 179 180 180 179 185 191 186
190 193 192 184 181 184 186 188 189 186 186 193 195 188 186 187 190 192 189 186 190 195 196 195 193 192 190 189 190 190 191 190 189 188 186 184 184 182 185 192 189 176
194 194 189 182 182 186 188 189 190 191 194 196 193 187 187 189 190 189 187 188 190 193 194 194 192 192 191 191 193 193 193 192 191 189 188 189 187 186 192 194 180 170
193 191 185 183 185 189 191 190 190 194 197 196 192 190 191 193 190 187 188 191 193 196 197 195 193 192 192 192 194 194 193 192 191 189 190 191 189 190 196 192 178 177
189 188 184 185 189 191 193 192 192 195 198 196 193 194 196 195 190 187 189 192 196 199 200 198 197 195 194 196 195 194 195 195 193 192 193 193 191 194 200 194 184 184
191 190 187 188 190 192 193 194 194 197 199 197 197 198 198 195 190 188 192 195 198 203 204 204 202 199 199 201 198 197 199 197 194 195 195 193 192 195 202 201 193 191
192 189 188 189 189 191 193 193 195 198 199 200 203 202 197 193 189 189 194 197 199 204 209 210 207 204 204 203 200 200 200 196 195 195 193 190 189 193 207 212 207 199
188 187 188 190 191 191 192 194 197 199 198 201 207 202 195 192 191 192 195 197 200 207 214 214 209 207 207 204 201 200 197 196 195 192 189 188 188 192 203 210 207 202
186 188 192 194 193 192 194 197 200 200 198 201 204 198 193 191 192 194 196 197 201 210 216 216 212 209 207 203 201 199 196 196 195 189 190 195 197 198 201 203 201 196
190 193 196 196 194 194 196 199 202 202 199 199 199 196 194 192 192 196 199 199 205 213 218 218 213 208 204 200 199 199 197 197 195 191 195 202 204 206 207 210 210 203
193 196 198 197 196 197 197 198 200 202 199 198 197 196 196 194 194 197 199 200 208 217 222 220 214 208 204 201 201 201 199 198 196 193 198 206 209 211 209 213 219 213
195 198 198 198 199 198 198 197 197 199 199 196 194 194 195 194 194 198 200 204 212 223 228 222 213 209 207 204 204 204 201 200 194 188 195 208 212 211 208 214 226 223
196 196 196 197 196 195 196 196 192 198 202 196 190 193 195 194 196 199 202 209 217 226 230 224 214 211 210 208 207 206 203 201 192 182 190 214 220 213 208 219 234 233